Flag for Mongolia Weather past 2 weeks in Ulaanbaatar, Mongolia

Now
48 °F

Passing clouds.


Feels Like: 43 °F
Forecast: 43 / 58 °F
Wind: 13 mph from Northwest

Location: Ulan-Bator

Current Time: Aug 22, 2014 at 6:24:16 AM

Latest Report: Aug 22, 2014 at 6:00 AM


Visibility: N/A

Pressure: 29.86 "Hg

Humidity: 94%

Dew point: 46 °F

Location of UlaanbaatarLocation

Historic Weather in Ulaanbaatar — Graph

°F

Ulaanbaatar temperature yesterday

Maximum temperature yesterday: 72 °F (at 4:00 PM)
Minimum temperature yesterday: 54 °F (at 1:30 AM)
Average temperature yesterday: 61 °F

Past Weeks' High & Low Weather Summary

 TemperatureHumidityPressure
High84 °F (Aug 18, 4:00 PM)100% (Aug 17, 6:30 AM)30.09 "Hg (Aug 17, 6:30 AM)
Low39 °F (Aug 12, 6:00 AM)13% (Aug 18, 4:30 PM)29.59 "Hg (Aug 7, 2:00 PM)
Average62 °F61%29.92 "Hg
* Reported Aug 7 5:00 AM — Aug 22 5:30 AM, Ulaanbaatar, Weather by CustomWeather, © 2014

Note: Actual official high and low records may vary slightly from our data, if they occured in-between our weather recording intervals... More about our weather records

Advertising

Ulaanbaatar weather history for previous 24 hours

 ConditionsComfort  
Time TempWeatherWind HumidityBarometerVisibility
5:30 AM
Aug 22
48 °FLight rain. Passing clouds.10 mph94%29.86 "HgN/A
5:00 AM50 °FLight rain. Passing clouds.6 mph88%29.86 "HgN/A
4:30 AM50 °FLight rain. Passing clouds.3 mph88%29.83 "HgN/A
4:00 AM50 °FRain. Passing clouds.8 mph94%29.83 "HgN/A
3:30 AM50 °FSprinkles. Passing clouds.15 mph94%29.83 "HgN/A
3:00 AM54 °FSprinkles. Passing clouds.10 mph88%29.80 "HgN/A
2:30 AM55 °FSprinkles. Passing clouds.13 mph94%29.80 "HgN/A
2:00 AM57 °FPassing clouds.6 mph88%29.77 "HgN/A
1:30 AM57 °FPassing clouds.No wind94%29.77 "HgN/A
1:00 AM57 °FPassing clouds.1 mph94%29.77 "HgN/A
12:30 AM57 °FPassing clouds.No wind94%29.77 "HgN/A
12:00 AM57 °FPassing clouds.3 mph94%29.80 "HgN/A
11:30 PM
Aug 21
57 °FPassing clouds.No wind94%29.77 "HgN/A
11:00 PM57 °FPassing clouds.1 mph88%29.80 "HgN/A
10:30 PM55 °FThunderstorms. Passing clouds.3 mph94%29.77 "HgN/A
10:00 PM55 °FThunderstorms. Passing clouds.1 mph94%29.77 "HgN/A
9:30 PM57 °FPassing clouds.No wind88%29.77 "HgN/A
9:00 PM57 °FSprinkles. Passing clouds.3 mph88%29.77 "HgN/A
8:30 PM59 °FSprinkles. Scattered clouds.1 mph82%29.74 "HgN/A
8:00 PM59 °FScattered clouds.3 mph82%29.74 "HgN/A
7:30 PM59 °FThunderstorms. Scattered clouds.6 mph82%29.74 "HgN/A
7:00 PM57 °FThunderstorms. Scattered clouds.10 mph82%29.74 "HgN/A
6:30 PM54 °FThunderstorms. Overcast.3 mph94%29.74 "Hg2 mi
6:00 PM70 °FThunderstorms. Scattered clouds.8 mph60%29.68 "HgN/A
5:30 PM72 °FScattered clouds.6 mph57%29.68 "HgN/A
5:00 PM72 °FScattered clouds.8 mph57%29.68 "HgN/A
4:30 PM70 °FScattered clouds.8 mph60%29.71 "HgN/A
4:00 PM72 °FScattered clouds.10 mph61%29.71 "HgN/A
3:30 PM70 °FScattered clouds.8 mph60%29.71 "HgN/A
3:00 PM68 °FScattered clouds.8 mph64%29.74 "HgN/A
2:30 PM68 °FScattered clouds.6 mph64%29.74 "HgN/A
2:00 PM66 °FPartly sunny.13 mph60%29.77 "HgN/A
1:30 PM64 °FSprinkles. Scattered clouds.8 mph68%29.80 "HgN/A
1:00 PM64 °FScattered clouds.6 mph73%29.83 "HgN/A
12:30 PM63 °FScattered clouds.6 mph83%29.83 "HgN/A
12:00 PM63 °FSprinkles. Scattered clouds.1 mph83%29.86 "HgN/A
11:30 AM64 °FSprinkles. Scattered clouds.3 mph78%29.86 "HgN/A
11:00 AM64 °FSprinkles. Scattered clouds.3 mph68%29.86 "HgN/A
10:30 AM64 °FSprinkles. Scattered clouds.1 mph68%29.86 "HgN/A
10:00 AM66 °FPartly sunny.6 mph68%29.83 "HgN/A
9:30 AM63 °FPartly sunny.10 mph73%29.83 "HgN/A
9:00 AM61 °FPartly sunny.3 mph77%29.86 "HgN/A
8:30 AM59 °FPartly sunny.10 mph77%29.86 "HgN/A
8:00 AM59 °FPartly sunny.8 mph77%29.86 "HgN/A
7:30 AM59 °FPartly sunny.8 mph77%29.86 "HgN/A
7:00 AM59 °FPartly sunny.10 mph77%29.86 "HgN/A
6:30 AM59 °FPassing clouds.10 mph77%29.86 "HgN/A
6:00 AM59 °FPassing clouds.6 mph82%29.86 "HgN/A
Weather by CustomWeather, © 2014

See weather overviewHow to use our weather pages